Ainsworth, NE

12:00 AM CDT on July 21, 2017 (GMT -0500)
Ainsworth Municipal

Weather History for KANW - January, 2013

Change the Weather History Date:

Friday, January 11, 2013

  Actual Average Record
Temperature  
Mean Temperature 25 °F -  
Max Temperature 36 °F 33 °F 60 °F (2006)
Min Temperature 12 °F 12 °F -11 °F (1997)
Degree Days  
Heating Degree Days 40    
Moisture  
Dew Point 25 °F    
Average Humidity 90    
Maximum Humidity 99    
Minimum Humidity 78    
Precipitation  
Precipitation 0.00 in - - ()
Sea Level Pressure  
Sea Level Pressure 29.49 in    
Wind  
Wind Speed 14 mph (WNW)    
Max Wind Speed 29 mph    
Max Gust Speed 38 mph    
Visibility 4 miles    
Events Snow    
Averages and records for this station are not official NWS values.
T = Trace of Precipitation, MM = Missing Value Source: NWS Daily Summary

Daily Weather History Graph

Daily Weather History Graph

Search for Another Location

Airport or City:

Trip Planner

Search our weather history database for the weather conditions in past years. The results will help you decide how hot, cold, wet, or windy it might be!

Date:

Astronomy

Jan. 11, 2013 Rise Set
Actual Time 8:08 AM CST 5:27 PM CST
Civil Twilight 7:37 AM CST 5:59 PM CST
Nautical Twilight 7:02 AM CST 6:34 PM CST
Astronomical Twilight 6:28 AM CST 7:08 PM CST
Moon 7:42 AM CST (1/11) 5:49 PM CST (1/11)
Length of Visible Light 10h 21m
Length of Day
9h 19m
Waning Crescent, 0% of the Moon is Illuminated
Jan 11
Waning Crescent
Jan 11
New
Jan 18
First Quarter
Jan 26
Full
Feb 3
Last Quarter

Hourly Weather History & Observations

Time (CST) Temp. Windchill Dew Point Humidity Pressure Visibility Wind Dir Wind Speed Gust Speed Precip Events Conditions
12:15 AM 35.2 °F 26.2 °F 33.8 °F 94% 29.50 in 7.0 mi SW 13.8 mph 24.2 mph N/A   Overcast
12:35 AM 35.2 °F 25.4 °F 33.8 °F 94% 29.50 in 10.0 mi SW 16.1 mph - N/A   Overcast
12:55 AM 35.6 °F 27.1 °F 33.8 °F 93% 29.49 in 10.0 mi SW 12.7 mph - N/A   Overcast
1:15 AM 35.6 °F 26.6 °F 33.8 °F 93% 29.47 in 10.0 mi SSW 13.8 mph - N/A   Overcast
1:35 AM 35.6 °F 26.2 °F 34.0 °F 94% 29.47 in 10.0 mi SSW 15.0 mph 19.6 mph N/A   Overcast
1:55 AM 35.6 °F 27.1 °F 34.0 °F 94% 29.46 in 7.0 mi SSW 12.7 mph - N/A   Overcast
2:15 AM 35.6 °F 27.5 °F 34.0 °F 94% 29.47 in 7.0 mi SSW 11.5 mph - N/A   Overcast
2:35 AM 35.6 °F 28.0 °F 34.2 °F 94% 29.46 in 7.0 mi SW 10.4 mph - N/A   Overcast
2:55 AM 35.6 °F 27.1 °F 34.3 °F 95% 29.44 in 5.0 mi SSW 12.7 mph - N/A   Overcast
3:15 AM 35.6 °F 27.1 °F 34.3 °F 95% 29.44 in 5.0 mi SW 12.7 mph - N/A   Overcast
3:35 AM 35.8 °F 28.8 °F 34.7 °F 96% 29.44 in 4.0 mi SW 9.2 mph - N/A   Overcast
3:55 AM 35.8 °F 28.3 °F 34.7 °F 96% 29.43 in 4.0 mi SSW 10.4 mph - N/A   Overcast
4:15 AM 35.8 °F 29.4 °F 34.7 °F 96% 29.42 in 5.0 mi SW 8.1 mph - N/A   Overcast
4:35 AM 35.8 °F 33.0 °F 34.7 °F 96% 29.42 in 5.0 mi WSW 3.5 mph - N/A   Overcast
4:55 AM 35.8 °F 30.9 °F 34.5 °F 95% 29.41 in 5.0 mi SSW 5.8 mph - N/A   Overcast
5:15 AM 35.6 °F 29.9 °F 34.2 °F 94% 29.41 in 5.0 mi SSW 6.9 mph - N/A   Overcast
5:35 AM 36.0 °F 28.5 °F 34.5 °F 94% 29.42 in 3.0 mi SW 10.4 mph - N/A   Overcast
5:55 AM 35.6 °F 30.7 °F 34.7 °F 97% 29.41 in 1.8 mi SSW 5.8 mph - N/A   Overcast
6:15 AM 35.6 °F - 34.3 °F 95% 29.40 in 2.0 mi Calm Calm - N/A   Overcast
6:35 AM 35.6 °F - 33.8 °F 93% 29.38 in 1.2 mi Calm Calm - N/A   Overcast
6:55 AM 35.1 °F 31.0 °F 34.2 °F 97% 29.39 in 1.0 mi SSW 4.6 mph - N/A   Overcast
7:15 AM 34.9 °F - 34.0 °F 97% 29.38 in 1.0 mi Calm Calm - N/A   Overcast
7:35 AM 34.9 °F - 34.0 °F 97% 29.39 in 1.2 mi Calm Calm - N/A   Overcast
7:55 AM 34.9 °F - 34.2 °F 97% 29.40 in 1.0 mi Calm Calm - N/A   Overcast
8:15 AM 34.9 °F - 34.2 °F 97% 29.40 in 0.8 mi Calm Calm - N/A   Overcast
8:35 AM 32.5 °F 22.3 °F 32.0 °F 98% 29.41 in 2.5 mi North 15.0 mph - N/A   Light Drizzle
8:55 AM 32.0 °F 20.8 °F 31.6 °F 99% 29.41 in 1.0 mi North 17.3 mph 20.7 mph N/A Snow Light Snow
9:15 AM 31.5 °F 20.1 °F 30.9 °F 98% 29.42 in 0.5 mi NNW 17.3 mph 20.7 mph N/A   Overcast
9:35 AM 30.2 °F 18.1 °F 29.7 °F 98% 29.45 in 1.2 mi NNW 18.4 mph 23.0 mph N/A   Overcast
9:55 AM 30.2 °F 18.9 °F 29.7 °F 98% 29.44 in 1.0 mi NNW 16.1 mph 19.6 mph N/A   Overcast
10:15 AM 30.4 °F 18.0 °F 29.8 °F 98% 29.43 in 0.8 mi NNW 19.6 mph 24.2 mph N/A   Overcast
10:35 AM 29.8 °F 17.3 °F 29.3 °F 98% 29.44 in 0.5 mi NNW 19.6 mph 23.0 mph N/A   Overcast
10:55 AM 29.3 °F 17.3 °F 28.9 °F 99% 29.44 in 0.5 mi NNW 17.3 mph 24.2 mph N/A Snow Light Snow
11:15 AM 29.3 °F 17.0 °F 28.6 °F 97% 29.44 in 1.0 mi NNW 18.4 mph - N/A   Overcast
11:35 AM 29.1 °F 16.7 °F 28.4 °F 97% 29.44 in 1.0 mi NNW 18.4 mph - N/A Snow Light Snow
11:55 AM 28.4 °F 16.2 °F 27.9 °F 98% 29.43 in 1.5 mi NNW 17.3 mph 21.9 mph N/A   Overcast
12:15 PM 27.9 °F 14.7 °F 27.0 °F 96% 29.41 in 2.5 mi NNW 19.6 mph - N/A   Overcast
12:35 PM 27.9 °F 15.9 °F 26.6 °F 95% 29.40 in 2.0 mi NNW 16.1 mph 20.7 mph N/A   Overcast
12:55 PM 27.5 °F 15.0 °F 26.2 °F 95% 29.39 in 5.0 mi NNW 17.3 mph 25.3 mph N/A   Overcast
1:15 PM 27.5 °F 14.6 °F 25.7 °F 93% 29.38 in 7.0 mi NNW 18.4 mph - N/A   Overcast
1:35 PM 27.1 °F 16.4 °F 24.8 °F 91% 29.40 in 7.0 mi NNW 12.7 mph 19.6 mph N/A   Overcast
1:55 PM 26.6 °F 14.3 °F 24.8 °F 93% 29.42 in 10.0 mi NNW 16.1 mph 21.9 mph N/A   Overcast
2:15 PM 26.4 °F 13.2 °F 23.9 °F 90% 29.41 in 7.0 mi NW 18.4 mph - N/A   Overcast
2:35 PM 25.9 °F 10.4 °F 23.5 °F 91% 29.37 in 7.0 mi NNW 25.3 mph 29.9 mph N/A   Overcast
2:55 PM 25.3 °F 12.2 °F 23.0 °F 91% 29.42 in 5.0 mi NNW 17.3 mph 24.2 mph N/A   Overcast
3:15 PM 25.2 °F 12.0 °F 21.9 °F 87% 29.45 in 10.0 mi NNW 17.3 mph 20.7 mph N/A   Overcast
3:35 PM 24.3 °F 10.4 °F 20.1 °F 84% 29.46 in 10.0 mi NNW 18.4 mph 24.2 mph N/A   Overcast
3:55 PM 23.9 °F 10.3 °F 19.6 °F 84% 29.48 in 10.0 mi NW 17.3 mph 21.9 mph N/A   Overcast
4:15 PM 23.4 °F 11.1 °F 19.2 °F 84% 29.49 in 10.0 mi NW 13.8 mph 19.6 mph N/A   Overcast
4:35 PM 22.8 °F 6.3 °F 17.2 °F 79% 29.48 in 10.0 mi NNW 25.3 mph 29.9 mph N/A   Overcast
4:55 PM 22.1 °F 7.2 °F 16.7 °F 80% 29.48 in 7.0 mi NNW 19.6 mph 31.1 mph N/A   Overcast
5:15 PM 22.1 °F 7.6 °F 17.1 °F 81% 29.51 in 5.0 mi NW 18.4 mph 29.9 mph N/A Snow Light Snow
5:35 PM 21.9 °F 7.3 °F 17.1 °F 82% 29.53 in 5.0 mi NW 18.4 mph - N/A Snow Light Snow
5:55 PM 21.2 °F 8.3 °F 16.5 °F 82% 29.57 in 4.0 mi NW 13.8 mph 21.9 mph N/A Snow Light Snow
6:15 PM 20.8 °F 6.8 °F 16.5 °F 83% 29.57 in 1.8 mi WNW 16.1 mph 21.9 mph N/A Snow Light Snow
6:35 PM 19.9 °F 3.9 °F 16.2 °F 85% 29.57 in 1.2 mi NW 20.7 mph 27.6 mph N/A Snow Light Snow
6:55 PM 19.0 °F 1.6 °F 14.7 °F 83% 29.57 in 1.5 mi NW 24.2 mph 29.9 mph N/A Snow Light Snow
7:15 PM 18.5 °F 0.6 °F 14.0 °F 83% 29.58 in 1.2 mi NW 25.3 mph 29.9 mph N/A Snow Light Snow
7:35 PM 18.0 °F 0.2 °F 13.3 °F 82% 29.61 in 1.8 mi NW 24.2 mph 32.2 mph N/A Snow Light Snow
7:55 PM 17.6 °F 1.3 °F 13.1 °F 83% 29.62 in 4.0 mi NW 19.6 mph 27.6 mph N/A Snow Light Snow
8:15 PM 17.6 °F 3.7 °F 13.5 °F 84% 29.62 in 2.5 mi WNW 13.8 mph 21.9 mph N/A Snow Light Snow
8:35 PM 17.6 °F 1.7 °F 13.8 °F 85% 29.64 in 0.8 mi WNW 18.4 mph 26.5 mph N/A Snow Light Snow
8:55 PM 16.9 °F -1.6 °F 12.2 °F 82% 29.66 in 2.5 mi NW 25.3 mph 34.5 mph N/A Snow Light Snow
9:15 PM 16.7 °F -0.7 °F 11.7 °F 81% 29.66 in 1.5 mi WNW 21.9 mph 29.9 mph N/A Snow Light Snow
9:35 PM 16.2 °F -2.2 °F 10.8 °F 79% 29.69 in 1.0 mi NW 24.2 mph 33.4 mph N/A Snow Light Snow
9:55 PM 15.6 °F -4.3 °F 10.6 °F 80% 29.69 in 2.0 mi NW 28.8 mph 38.0 mph N/A Snow Light Snow
10:15 PM 15.4 °F -1.6 °F 10.4 °F 80% 29.69 in 2.5 mi NW 19.6 mph 29.9 mph N/A Snow Light Snow
10:35 PM 15.4 °F -2.0 °F 11.3 °F 84% 29.70 in 1.2 mi NW 20.7 mph 29.9 mph N/A Snow Light Snow
10:55 PM 14.9 °F -2.7 °F 10.0 °F 81% 29.72 in 3.0 mi WNW 20.7 mph 26.5 mph N/A Snow Light Snow
11:15 PM 14.0 °F -5.1 °F 8.2 °F 78% 29.73 in 4.0 mi NW 24.2 mph 32.2 mph N/A Snow Light Snow
11:35 PM 14.0 °F -3.4 °F 8.6 °F 79% 29.74 in 3.0 mi WNW 19.6 mph 25.3 mph N/A Snow Light Snow
11:55 PM 12.9 °F -6.1 °F 7.5 °F 79% 29.75 in 5.0 mi WNW 23.0 mph 28.8 mph N/A Snow Light Snow